Content
SEND FEEDBACK

Daily
Averages
Monthly
Summary
United States of America

UPI, GUAM


Home > North America > United States > Guam
Elevation: 16 meters     Latitude: 13 34N     Longitude: 144 55E

WEATHER
 
SELECT A DAY
Number of Records: 213,760;   Date Range: 1/1/95 - 10/19/14
 
SHARE

PRINT THIS DATA

[ ← Previous Day ]
WEATHER ALMANAC - 12 MARCH, 2013
[ Next Day → ]
[ °F ]   °C
Weather ElementAverageHighLow
Temperature26.4 °C28.9 °C (1:54 pm)25 °C (3:35 am)
Dewpoint23.5 °C25 °C (9:57 am)22 °C (11:34 pm)
Humidity84.3 %90 % (3:54 am)69 % (1:54 pm)
Barometer1011.2 hPa1012.9 hPa (10:47 pm)1008.8 hPa (3:54 pm)
Wind Speed19.6 km/h33.3 km/h (12:09 pm)
Wind Gust44.4 km/h (12:51 pm)
Weather ElementAverage
Visibility10.5 km
Wind DirectionENE (57.3 °)

Weather ElementTotal
Precipitation12.95 mm
Cooling Degree Days8.6 (Base 18.3)
Growing Degree Days16.9 (Base 10)
Averaged from 64 records on 12 March, 2013
WEATHER CONDITIONS BREAKOUT
WIND DIRECTION BREAKOUT
WEATHER BY HOUR - 12 MARCH, 2013
[ °F ]   °C
Local TimeTemperatureDewpointHumidityBarometerVisibilityWind DirectionWind SpeedGust SpeedPrecipitationEventsConditions
1:32 AM26 °C24 °C89 %1011.5 hPa4 kmENE (70°)14.8 km/h0.76 mmRainRain
1:41 AM26 °C24 °C89 %1011.5 hPa8 kmENE (70°)11.1 km/h1.02 mmRainLight Rain
1:54 AM25.6 °C23.3 °C87 %1010.5 hPa16.1 kmNE (50°)14.8 km/h1.02 mmOvercast
2:54 AM25.6 °C23.3 °C87 %1009.8 hPa16.1 kmNE (50°)16.7 km/h0.25 mmMostly Cloudy
3:35 AM25 °C23 °C89 %1010.5 hPa4 kmEast (80°)24.1 km/h0 mmRainRain
3:47 AM25 °C23 °C89 %1010.8 hPa8 kmEast (80°)18.5 km/h0.25 mmRainLight Rain
3:54 AM25 °C23.3 °C90 %1009.8 hPa16.1 kmEast (80°)14.8 km/h0.25 mmOvercast
4:04 AM26 °C23 °C83 %1010.5 hPa16.1 kmEast (80°)13 km/hMostly Cloudy
4:36 AM26 °C23 °C83 %1010.8 hPa16.1 kmEast (90°)7.4 km/hScattered Clouds
4:54 AM25.6 °C23.3 °C87 %1009.8 hPa16.1 kmENE (60°)7.4 km/hScattered Clouds
5:54 AM25.6 °C22.8 °C84 %1010.2 hPa16.1 kmEast (80°)16.7 km/h0.25 mmOvercast
6:16 AM26 °C23 °C83 %1011.2 hPa16.1 kmEast (90°)9.3 km/h0 mmRainLight Rain
6:25 AM26 °C23 °C83 %1011.2 hPa16.1 kmEast (80°)7.4 km/h0 mmRainLight Rain
6:34 AM26 °C23 °C83 %1011.5 hPa6.4 kmEast (90°)9.3 km/h0.25 mmRainRain
6:45 AM26 °C23 °C83 %1011.5 hPa4.8 kmEast (80°)7.4 km/h0.51 mmRainLight Rain
6:52 AM26 °C24 °C89 %1011.5 hPa9.7 kmENE (70°)14.8 km/h0.76 mmRainLight Rain
6:54 AM25.6 °C23.9 °C90 %1010.8 hPa14.5 kmEast (80°)16.7 km/h0.76 mmRainLight Rain
7:13 AM26 °C23 °C83 %1011.9 hPa16.1 kmEast (80°)11.1 km/h0 mmOvercast
7:54 AM27.2 °C23.3 °C79 %1011.2 hPa16.1 kmEast (90°)16.7 km/h0 mmOvercast
8:54 AM28.3 °C23.9 °C77 %1011.5 hPa16.1 kmENE (70°)18.5 km/hMostly Cloudy
9:34 AM28 °C23 °C74 %1012.5 hPa16.1 kmENE (60°)16.7 km/hMostly Cloudy
9:48 AM27 °C24 °C84 %1012.5 hPa3.2 kmNE (40°)22.2 km/h0.76 mmRainLight Rain
9:49 AM27.2 °C24.4 °C85 %1011.9 hPa3.2 kmNE (40°)20.4 km/h0.76 mmRainLight Rain
9:57 AM28 °C25 °C84 %1012.5 hPa11.3 kmNE (50°)20.4 km/hOvercast
10:42 AM28 °C24 °C79 %1012.5 hPa6.4 kmNE (50°)25.9 km/hRainLight Rain
10:49 AM27 °C24 °C84 %1012.5 hPa4.8 kmNNE (30°)22.2 km/hRainLight Rain
10:54 AM27.2 °C24.4 °C85 %1011.5 hPa4 kmNNE (20°)20.4 km/hRainLight Rain
10:57 AM28 °C25 °C84 %1012.2 hPa6.4 kmNNE (30°)24.1 km/h0 mmRainLight Rain
11:08 AM27 °C24 °C84 %1012.2 hPa6.4 kmNE (40°)25.9 km/h0 mmRainLight Rain
11:51 AM27 °C24 °C84 %1011.9 hPa4.8 kmENE (60°)25.9 km/h37 km/h0 mmRainLight Rain
11:54 AM26.7 °C23.9 °C85 %1011.2 hPa6.4 kmENE (70°)25.9 km/h37 km/h0 mmRainLight Rain
12:09 PM28 °C24 °C79 %1011.5 hPa14.5 kmNE (50°)33.3 km/h40.7 km/h0 mmRainLight Rain
12:16 PM28 °C24 °C79 %1011.5 hPa16.1 kmNE (50°)24.1 km/h40.7 km/h0 mmOvercast
12:51 PM27 °C24 °C84 %1011.2 hPa4 kmNE (40°)29.6 km/h44.4 km/h0 mmRainLight Rain
12:54 PM26.7 °C23.9 °C85 %1010.2 hPa4 kmNE (40°)29.6 km/h44.4 km/h0 mmRainLight Rain
12:58 PM27 °C24 °C84 %1010.8 hPa4.8 kmNE (40°)27.8 km/h0 mmRainLight Rain
1:12 PM28 °C24 °C79 %1010.5 hPa16.1 kmNE (50°)25.9 km/h0 mmOvercast
1:26 PM28 °C24 °C79 %1010.5 hPa16.1 kmNE (50°)29.6 km/h0 mmMostly Cloudy
1:54 PM28.9 °C22.8 °C69 %1009.5 hPa16.1 kmNE (50°)31.5 km/h40.7 km/h0 mmMostly Cloudy
2:51 PM27 °C24 °C84 %1009.8 hPa2.9 kmENE (60°)31.5 km/h42.6 km/h0.25 mmRainRain
2:54 PM26.7 °C23.9 °C85 %1009.5 hPa2.4 kmENE (60°)27.8 km/h42.6 km/h0.25 mmRainRain
3:03 PM26 °C24 °C89 %1009.8 hPa4.8 kmENE (60°)29.6 km/h0 mmRainLight Rain
3:13 PM27 °C24 °C84 %1009.5 hPa14.5 kmENE (70°)24.1 km/h38.9 km/h0 mmOvercast
3:54 PM27.8 °C23.9 °C79 %1008.8 hPa8 kmNE (40°)22.2 km/hRainLight Rain
4:54 PM27.2 °C23.9 °C82 %1009.5 hPa16.1 kmENE (60°)18.5 km/h0.25 mmRainLight Rain
5:01 PM27 °C24 °C84 %1010.2 hPa16.1 kmNE (50°)13 km/hOvercast
5:54 PM26.7 °C23.3 °C81 %1009.5 hPa16.1 kmNE (40°)18.5 km/hMostly Cloudy
6:03 PM27 °C23 °C79 %1010.2 hPa16.1 kmNNE (30°)16.7 km/hOvercast
6:54 PM26.1 °C23.3 °C84 %1010.2 hPa16.1 kmNNE (30°)22.2 km/hOvercast
7:24 PM26 °C23 °C83 %1011.2 hPa4.8 kmENE (60°)25.9 km/h37 km/h0.25 mmRainLight Rain
7:42 PM25 °C23 °C89 %1011.2 hPa12.9 kmNE (50°)16.7 km/h0.25 mmOvercast
7:54 PM25 °C22.8 °C88 %1010.8 hPa12.9 kmNE (50°)22.2 km/h0.25 mmOvercast
8:54 PM25.6 °C23.9 °C90 %1011.2 hPa16.1 kmNNE (30°)9.3 km/h0.76 mmOvercast
9:24 PM26 °C23 °C83 %1012.5 hPa6.4 kmNE (40°)20.4 km/h0 mmRainLight Rain
9:33 PM26 °C23 °C83 %1012.5 hPa4.8 kmENE (60°)22.2 km/h0 mmRainLight Rain
9:37 PM25 °C23 °C89 %1012.5 hPa4.8 kmNE (50°)18.5 km/h0 mmRainLight Rain
9:43 PM25 °C23 °C89 %1012.5 hPa6.4 kmNE (40°)14.8 km/h0.25 mmRainLight Rain
9:54 PM25 °C23.3 °C90 %1011.9 hPa6.4 kmNE (50°)20.4 km/h0.51 mmRainLight Rain
10:03 PM25 °C23 °C89 %1012.5 hPa14.5 kmNE (50°)14.8 km/h0 mmOvercast
10:23 PM26 °C23 °C83 %1012.5 hPa16.1 kmNE (50°)16.7 km/h0 mmOvercast
10:47 PM25 °C23 °C89 %1012.9 hPa4 kmEast (80°)16.7 km/h0.25 mmRainLight Rain
10:54 PM25 °C23.3 °C90 %1012.2 hPa4.8 kmENE (70°)18.5 km/h0.51 mmRainRain
11:34 PM25 °C22 °C83 %1012.9 hPa11.3 kmNE (50°)24.1 km/h0.76 mmOvercast
11:54 PM25 °C22.8 °C88 %1011.9 hPa11.3 kmENE (60°)18.5 km/h0.76 mmOvercast
Hourly data recorded from PGUM, located 0 kilometers away from Upi, Guam







STORIES FROM OUR PARTNERS